map of CEB home
Great Circle Mapper logo
CEB - Airport
Location
City:  Lapu-Lapu, Philippines
Name:Mactan-Cebu International Airport
ICAO / IATA:RPVM / CEB

Details
Type:Airport (Aerodrome, Airfield)
Use:Public/Civil, Military, International (customs port of entry)
Latitude:1018'27"N (10.307542)
Longitude:12358'46"E (123.979439)
Datum:WGS 1984
Elevation:31 ft (9 m)
Runways:1
Longest:10827 × 148 ft (3300 × 45 m), paved

Time
Time Zone:UTC+8
Local Time:

Weather
METAR:RPVM 020100Z 20004KT 9999 FEW020 SCT300 29/24 Q1011 RMK A2985 TCU ESE
TAF:RPVM 012300Z 0200/0306 28004KT 9999 FEW018 OVC250
TEMPO 0206/ 0212 29006KT 8000 -RA FEW020 OVC090
TEMPO 0300/0306 27004KT 7000 -RA SCT018 OVC090

Related Locations
Nearby:
Farthest:AFL: 12444 mi / 20027 km
Alta Floresta, MT, BR

Find:

   beyond  
but within

Other Information
Maps:
NOTAMs:
Links:
Sources:

  
flag of Philippines   

Sectional Chart

Flight Planning
at skyvector.com

Satellite Image

Google Maps Satellite View

 

Copyright © 2004-2014 Karl L. Swartz. All rights reserved.
The Great Circle Mapper name and logo are trademarks of the Great Circle Mapper.
All other trademarks mentioned herein belong to their respective owners.
Please see credits for attibutions and further copyright information.

  Follow gcmap on Facebook Follow gcmap on Twitter

hCard Microformat

Geo Microformat